Flag for U.S.A. Weather past 2 weeks in Seattle, Washington, U.S.A.

Now
47 °F

Light rain. Overcast.


Feels Like: 47 °F
Forecast: 46 / 54 °F
Wind: No wind

Location: Seattle Boeing Field

Current Time: Dec 20, 2014 at 7:19:40 AM

Latest Report: Dec 20, 2014 at 6:53 AM


Visibility: 6 mi

Pressure: 29.66 "Hg

Humidity: 83%

Dew point: 42 °F

Location of SeattleLocation

Historic Weather in Seattle — Graph

°F

Seattle temperature yesterday

Maximum temperature yesterday: 54 °F (at 12:53 PM)
Minimum temperature yesterday: 46 °F (at 9:53 PM)
Average temperature yesterday: 50 °F

Past Weeks' High & Low Weather Summary

 TemperatureHumidityPressure
High68 °F (Dec 10, 10:53 AM)93% (Dec 7, 9:55 AM)30.24 "Hg (Dec 7, 9:55 AM)
Low38 °F (Dec 14, 7:53 AM)27% (Dec 14, 3:53 PM)29.13 "Hg (Dec 11, 3:53 PM)
Average51 °F71%29.86 "Hg
* Reported Dec 5 5:53 AM — Dec 20 5:53 AM, Seattle, Weather by CustomWeather, © 2014

Note: Actual official high and low records may vary slightly from our data, if they occured in-between our weather recording intervals... More about our weather records

Advertising

Seattle weather history for previous 24 hours

 ConditionsComfort  
Time TempWeatherWind HumidityBarometerVisibility
5:53 AM
Dec 20
47 °FLight rain. Overcast.3 mph83%29.67 "Hg10 mi
4:53 AM47 °FLight rain. Overcast.9 mph80%29.70 "Hg10 mi
3:53 AM46 °FLight rain. Overcast.6 mph83%29.74 "Hg10 mi
2:53 AM46 °FLight rain. Overcast.5 mph83%29.78 "Hg10 mi
1:53 AM46 °FLight rain. Overcast.6 mph83%29.81 "Hg7 mi
12:53 AM47 °FLight rain. Overcast.6 mph80%29.84 "Hg7 mi
11:53 PM
Dec 19
47 °FLight rain. Overcast.5 mph74%29.87 "Hg8 mi
10:53 PM47 °FOvercast.5 mph71%29.87 "Hg10 mi
9:53 PM46 °FPassing clouds.6 mph71%29.87 "Hg10 mi
8:53 PM49 °FPassing clouds.8 mph64%29.91 "Hg10 mi
7:53 PM49 °FPassing clouds.8 mph66%29.93 "Hg10 mi
6:53 PM51 °FPassing clouds.7 mph59%29.95 "Hg10 mi
5:53 PM51 °FPassing clouds.7 mph61%29.95 "Hg10 mi
4:53 PM52 °FPassing clouds.7 mph59%29.94 "Hg10 mi
3:53 PM53 °FPartly sunny.10 mph59%29.95 "Hg10 mi
2:53 PM53 °FBroken clouds.8 mph59%29.95 "Hg10 mi
1:53 PM53 °FBroken clouds.12 mph61%29.94 "Hg10 mi
12:53 PM54 °FBroken clouds.6 mph62%29.96 "Hg10 mi
11:53 AM53 °FCloudy.12 mph64%29.95 "Hg10 mi
10:53 AM52 °FPassing clouds.12 mph69%29.94 "Hg10 mi
9:53 AM51 °FScattered clouds.10 mph69%29.92 "Hg10 mi
8:53 AM50 °FBroken clouds.8 mph71%29.90 "Hg10 mi
7:53 AM49 °FLight rain. Overcast.No wind77%29.88 "Hg10 mi
Weather by CustomWeather, © 2014

See weather overviewHow to use our weather pages